Location: Campillo
(40.8621°N, 4.2488°W)
Time: 11:19:26
(UTC+00:00)

Cosmos 2297 - Pass Details

Date: 11 May 2021
Orbit: 837 x 857 km, 71.0° (Epoch: 13 June)

Event Time Altitude Azimuth Distance (km) Brightness Sun altitude
Exits shadow 23:04:26 64° 268° (W) 940 3.9 -28.9°
Maximum altitude 23:04:53 66° 296° (WNW) 923 3.9 -28.9°
Drops below altitude 10° 23:10:32 10° 18° (NNE) 2,475 6.8 -29.2°
Sets 23:13:01 0° 22° (NNE) 3,411 7.6 -29.4°
